Time,TemperatureF,DewpointF,PressureIn,WindDirection,WindDirectionDegrees,WindSpeedMPH,WindSpeedGustMPH,Humidity,HourlyPrecipIn,Conditions,Clouds,dailyrainin,SoftwareType,DateUTC
2013-06-14 00:04:00,56.2,54.2,29.63,ENE,72,15.0,21.0,93,0.01,RA,,0.01,WeatherDisplay:10.37,2013-06-14 04:04:00,
2013-06-14 00:14:00,56.1,54.1,29.61,NE,54,15.0,26.0,93,0.04,RA,,0.05,WeatherDisplay:10.37,2013-06-14 04:14:00,
2013-06-14 00:20:00,56.7,54.7,29.63,ENE,76,14.0,15.0,93,0.00,OVC,,0.00,WeatherDisplay:10.37,2013-06-14 04:20:00,
2013-06-14 00:24:00,56.1,54.1,29.60,NE,54,14.0,22.0,93,0.01,RA,,0.07,WeatherDisplay:10.37,2013-06-14 04:24:00,
2013-06-14 00:31:00,56.7,54.7,29.63,ENE,69,14.0,22.0,93,0.00,OVC,,0.00,WeatherDisplay:10.37,2013-06-14 04:31:00,
2013-06-14 00:39:00,56.1,54.1,29.60,ENE,60,16.0,21.0,93,0.01,OVC,,0.01,WeatherDisplay:10.37,2013-06-14 04:39:00,
2013-06-14 00:44:00,56.0,54.0,29.60,ENE,63,16.0,26.0,93,0.00,OVC,,0.01,WeatherDisplay:10.37,2013-06-14 04:44:00,
2013-06-14 00:50:00,56.0,54.1,29.60,ENE,61,15.0,22.0,93,0.00,OVC,,0.01,WeatherDisplay:10.37,2013-06-14 04:50:00,
2013-06-14 00:55:00,56.0,54.0,29.60,ENE,65,18.0,25.0,93,0.01,-RA,,0.02,WeatherDisplay:10.37,2013-06-14 04:55:00,
2013-06-14 01:01:00,56.0,54.0,29.60,NE,51,16.0,22.0,93,0.02,-RA,,0.09,WeatherDisplay:10.37,2013-06-14 05:01:00,
2013-06-14 01:09:00,56.0,53.7,29.60,NE,55,17.0,25.0,92,0.00,-RA,,0.02,WeatherDisplay:10.37,2013-06-14 05:09:00,
2013-06-14 01:20:00,56.0,53.7,29.60,NE,52,17.0,17.0,92,0.00,-RA,,0.02,WeatherDisplay:10.37,2013-06-14 05:20:00,
2013-06-14 01:29:00,55.7,53.4,29.60,NE,51,18.0,28.0,92,0.01,-RA,,0.13,WeatherDisplay:10.37,2013-06-14 05:29:00,
2013-06-14 01:42:00,56.0,53.7,29.60,NE,52,17.0,17.0,92,0.00,-RA,,0.02,WeatherDisplay:10.37,2013-06-14 05:42:00,
2013-06-14 01:50:00,55.6,53.3,29.60,NE,53,15.0,24.0,92,0.08,-RA,,0.10,WeatherDisplay:10.37,2013-06-14 05:50:00,
2013-06-14 01:59:00,55.3,53.0,29.59,NE,56,12.0,21.0,92,0.01,-RA,,0.12,WeatherDisplay:10.37,2013-06-14 05:59:00,
2013-06-14 02:04:00,55.3,53.0,29.59,NE,54,15.0,21.0,92,0.01,-RA,,0.13,WeatherDisplay:10.37,2013-06-14 06:04:00,
2013-06-14 02:09:00,55.4,53.1,29.60,ENE,60,14.0,15.0,92,0.00,-RA,,0.17,WeatherDisplay:10.37,2013-06-14 06:09:00,
2013-06-14 02:14:00,55.2,52.9,29.59,ENE,61,16.0,27.0,92,0.01,-RA,,0.14,WeatherDisplay:10.37,2013-06-14 06:14:00,
2013-06-14 02:19:00,55.2,52.9,29.59,ENE,68,15.0,26.0,92,0.00,-RA,,0.14,WeatherDisplay:10.37,2013-06-14 06:19:00,
2013-06-14 02:29:00,55.1,52.8,29.59,ENE,63,14.0,23.0,92,0.01,-RA,,0.15,WeatherDisplay:10.37,2013-06-14 06:29:00,
2013-06-14 02:34:00,55.0,52.7,29.59,ENE,65,16.0,25.0,92,0.00,-RA,,0.15,WeatherDisplay:10.37,2013-06-14 06:34:00,
2013-06-14 02:44:00,55.0,52.7,29.59,ENE,68,16.0,27.0,92,0.01,-RA,,0.16,WeatherDisplay:10.37,2013-06-14 06:44:00,
2013-06-14 02:49:00,55.0,52.7,29.59,ENE,58,16.0,25.0,92,0.01,-RA,,0.17,WeatherDisplay:10.37,2013-06-14 06:49:00,
2013-06-14 02:54:00,55.0,52.7,29.59,NE,50,15.0,24.0,92,0.00,-RA,,0.17,WeatherDisplay:10.37,2013-06-14 06:54:00,
2013-06-14 02:59:00,55.0,52.7,29.59,NE,47,17.0,29.0,92,0.00,-RA,,0.17,WeatherDisplay:10.37,2013-06-14 06:59:00,
2013-06-14 03:09:00,54.8,52.6,29.59,ENE,57,15.0,24.0,92,0.00,-RA,,0.18,WeatherDisplay:10.37,2013-06-14 07:09:00,
2013-06-14 03:19:00,55.0,52.7,29.58,NE,53,16.0,29.0,92,0.00,-RA,,0.18,WeatherDisplay:10.37,2013-06-14 07:19:00,
2013-06-14 03:24:00,55.0,52.7,29.58,NE,48,17.0,22.0,92,0.04,-RA,,0.25,WeatherDisplay:10.37,2013-06-14 07:24:00,
2013-06-14 03:29:00,54.9,52.7,29.58,NE,55,20.0,29.0,92,0.00,-RA,,0.25,WeatherDisplay:10.37,2013-06-14 07:29:00,
2013-06-14 03:39:00,54.9,52.6,29.58,ENE,65,15.0,15.0,92,0.00,-RA,,0.18,WeatherDisplay:10.37,2013-06-14 07:39:00,
2013-06-14 03:44:00,55.2,52.9,29.58,ENE,60,12.0,20.0,92,0.01,-RA,,0.19,WeatherDisplay:10.37,2013-06-14 07:44:00,
2013-06-14 03:51:00,55.2,52.9,29.58,NE,54,13.0,22.0,92,0.01,-RA,,0.20,WeatherDisplay:10.37,2013-06-14 07:51:00,
2013-06-14 03:59:00,55.1,52.8,29.58,NE,48,15.0,30.0,92,0.00,-RA,,0.20,WeatherDisplay:10.37,2013-06-14 07:59:00,
2013-06-14 04:04:00,55.0,52.7,29.58,NE,42,18.0,27.0,92,0.02,-RA,,0.29,WeatherDisplay:10.37,2013-06-14 08:04:00,
2013-06-14 04:10:00,55.0,52.7,29.58,ENE,71,17.0,24.0,92,0.00,-RA,,0.21,WeatherDisplay:10.37,2013-06-14 08:10:00,
2013-06-14 04:19:00,55.0,53.0,29.58,ENE,70,17.0,24.0,93,0.00,-RA,,0.21,WeatherDisplay:10.37,2013-06-14 08:19:00,
2013-06-14 04:30:00,55.0,53.0,29.58,ENE,70,17.0,24.0,93,0.00,-RA,,0.21,WeatherDisplay:10.37,2013-06-14 08:30:00,
2013-06-14 04:39:00,55.0,53.0,29.59,NE,44,13.0,13.0,93,0.00,-RA,,0.32,WeatherDisplay:10.37,2013-06-14 08:39:00,
2013-06-14 04:44:00,55.2,53.2,29.60,NE,43,8.0,20.0,93,0.01,-RA,,0.26,WeatherDisplay:10.37,2013-06-14 08:44:00,
2013-06-14 04:54:00,55.0,53.0,29.61,NE,41,13.0,18.0,93,0.02,-RA,,0.29,WeatherDisplay:10.37,2013-06-14 08:54:00,
2013-06-14 04:59:00,54.9,52.9,29.61,NE,35,10.0,23.0,93,0.03,-RA,,0.32,WeatherDisplay:10.37,2013-06-14 08:59:00,
2013-06-14 05:09:00,54.9,52.6,29.61,NE,51,14.0,20.0,92,0.00, +RA,,0.34,WeatherDisplay:10.37,2013-06-14 09:09:00,
2013-06-14 05:19:00,54.9,52.6,29.61,NE,51,14.0,18.0,92,0.00, +RA,,0.34,WeatherDisplay:10.37,2013-06-14 09:19:00,
2013-06-14 05:29:00,54.9,52.6,29.61,NE,51,14.0,18.0,92,0.00, +RA,,0.34,WeatherDisplay:10.37,2013-06-14 09:29:00,
2013-06-14 05:34:00,54.9,52.9,29.60,NE,47,17.0,23.0,93,0.06,RA,,0.40,WeatherDisplay:10.37,2013-06-14 09:34:00,
2013-06-14 05:40:00,54.8,52.8,29.60,NE,49,16.0,22.0,93,0.01,RA,,0.41,WeatherDisplay:10.37,2013-06-14 09:40:00,
2013-06-14 05:53:00,55.0,53.0,29.62,NE,55,12.0,25.0,93,0.00,RA,,0.42,WeatherDisplay:10.37,2013-06-14 09:53:00,
2013-06-14 05:59:00,54.8,52.8,29.63,NE,43,17.0,22.0,93,0.02,RA,,0.49,WeatherDisplay:10.37,2013-06-14 09:59:00,
2013-06-14 06:04:00,54.8,52.8,29.62,NE,42,15.0,22.0,93,0.01,RA,,0.50,WeatherDisplay:10.37,2013-06-14 10:04:00,
2013-06-14 06:10:00,54.7,52.7,29.62,NE,42,13.0,24.0,93,0.02,RA,,0.44,WeatherDisplay:10.37,2013-06-14 10:10:00,
2013-06-14 06:19:00,54.7,52.7,29.62,ENE,60,20.0,21.0,93,0.00, +RA,,0.51,WeatherDisplay:10.37,2013-06-14 10:19:00,
2013-06-14 06:25:00,54.4,52.5,29.62,NE,42,16.0,32.0,93,0.02, +RA,,0.48,WeatherDisplay:10.37,2013-06-14 10:25:00,
2013-06-14 06:30:00,54.4,52.4,29.62,NE,44,14.0,26.0,93,0.00, +RA,,0.48,WeatherDisplay:10.37,2013-06-14 10:30:00,
2013-06-14 06:39:00,54.3,52.3,29.63,NNE,31,15.0,23.0,93,0.00,-RA,,0.49,WeatherDisplay:10.37,2013-06-14 10:39:00,
2013-06-14 06:44:00,54.3,52.3,29.63,NNE,27,15.0,27.0,93,0.00,-RA,,0.49,WeatherDisplay:10.37,2013-06-14 10:44:00,
2013-06-14 06:50:00,54.3,52.3,29.64,NNE,29,13.0,26.0,93,0.00,-RA,,0.49,WeatherDisplay:10.37,2013-06-14 10:50:00,
2013-06-14 06:59:00,54.2,50.4,29.64,NNE,27,14.0,22.0,87,0.01,-RA,,0.51,WeatherDisplay:10.37,2013-06-14 10:59:00,
2013-06-14 07:04:00,54.2,50.4,29.64,NNE,29,17.0,28.0,87,0.01,-RA,,0.53,WeatherDisplay:10.37,2013-06-14 11:04:00,
2013-06-14 07:09:00,54.2,50.4,29.64,NNE,28,14.0,22.0,87,0.02,-RA,,0.54,WeatherDisplay:10.37,2013-06-14 11:09:00,
2013-06-14 07:14:00,54.1,52.2,29.64,NNE,30,17.0,24.0,93,0.01,RA,,0.55,WeatherDisplay:10.37,2013-06-14 11:14:00,
2013-06-14 07:20:00,54.1,52.1,29.65,NNE,26,15.0,26.0,93,0.01,RA,,0.56,WeatherDisplay:10.37,2013-06-14 11:20:00,
2013-06-14 07:29:00,54.7,52.7,29.62,ENE,60,20.0,21.0,93,0.00,RA,,0.51,WeatherDisplay:10.37,2013-06-14 11:29:00,
2013-06-14 07:39:00,54.2,52.2,29.65,NE,34,13.0,16.0,93,0.00,-RA,,0.57,WeatherDisplay:10.37,2013-06-14 11:39:00,
2013-06-14 07:49:00,54.4,52.4,29.66,NNE,26,13.0,20.0,93,0.00,-RA,,0.57,WeatherDisplay:10.37,2013-06-14 11:49:00,
2013-06-14 07:59:00,54.4,52.4,29.66,NNE,21,18.0,27.0,93,0.00,-RA,,0.58,WeatherDisplay:10.37,2013-06-14 11:59:00,
2013-06-14 08:09:00,54.4,51.2,29.66,NNE,14,18.0,20.0,89,0.00,-RA,,0.58,WeatherDisplay:10.37,2013-06-14 12:09:00,
2013-06-14 08:24:00,54.2,52.2,29.66,NNE,25,17.0,25.0,93,0.01,-RA,,0.66,WeatherDisplay:10.37,2013-06-14 12:24:00,
2013-06-14 08:29:00,54.4,52.4,29.66,North,9,18.0,18.0,93,0.00,-RA,,0.58,WeatherDisplay:10.37,2013-06-14 12:29:00,
2013-06-14 08:40:00,54.4,52.4,29.66,North,9,18.0,18.0,93,0.00,-RA,,0.58,WeatherDisplay:10.37,2013-06-14 12:40:00,
2013-06-14 08:49:00,54.4,52.4,29.66,North,9,18.0,18.0,93,0.00,-RA,,0.58,WeatherDisplay:10.37,2013-06-14 12:49:00,
2013-06-14 08:54:00,54.7,52.7,29.67,NNE,18,15.0,27.0,93,0.01,RA,,0.59,WeatherDisplay:10.37,2013-06-14 12:54:00,
2013-06-14 08:59:00,54.9,52.9,29.67,NE,34,15.0,20.0,93,0.00,RA,,0.59,WeatherDisplay:10.37,2013-06-14 12:59:00,
2013-06-14 09:04:00,54.9,51.8,29.67,NNE,31,15.0,22.0,89,0.01,-RA,,0.60,WeatherDisplay:10.37,2013-06-14 13:04:00,
2013-06-14 09:10:00,54.9,51.8,29.67,NE,34,18.0,29.0,89,0.00,-RA,,0.60,WeatherDisplay:10.37,2013-06-14 13:10:00,
2013-06-14 09:15:00,54.9,51.7,29.67,NE,44,16.0,16.0,89,0.00,-RA,,0.66,WeatherDisplay:10.37,2013-06-14 13:15:00,
2013-06-14 09:22:00,55.0,51.8,29.67,NE,42,17.0,27.0,89,0.00,-RA,,0.60,WeatherDisplay:10.37,2013-06-14 13:22:00,
2013-06-14 09:29:00,55.4,53.4,29.66,NNE,32,17.0,23.0,93,0.00,-RA,,0.60,WeatherDisplay:10.37,2013-06-14 13:29:00,
2013-06-14 09:34:00,55.3,53.4,29.66,NE,35,17.0,30.0,93,0.00,-RA,,0.60,WeatherDisplay:10.37,2013-06-14 13:34:00,
2013-06-14 09:39:00,55.5,53.5,29.66,NNE,33,20.0,30.0,93,0.00,-RA,,0.60,WeatherDisplay:10.37,2013-06-14 13:39:00,
2013-06-14 09:49:00,54.9,52.9,29.67,NE,44,16.0,16.0,93,0.00,-RA,,0.66,WeatherDisplay:10.37,2013-06-14 13:49:00,
2013-06-14 09:59:00,55.9,53.9,29.67,NE,37,20.0,26.0,93,0.00,-RA,,0.67,WeatherDisplay:10.37,2013-06-14 13:59:00,
2013-06-14 10:04:00,56.1,51.7,29.67,NE,46,22.0,32.0,85,0.00,RA,,0.67,WeatherDisplay:10.37,2013-06-14 14:04:00,
2013-06-14 10:09:00,55.6,50.5,29.67,NE,43,18.0,18.0,83,0.00,RA,,0.60,WeatherDisplay:10.37,2013-06-14 14:09:00,
2013-06-14 10:24:00,57.0,51.9,29.67,NE,40,14.0,32.0,83,0.01,RA,,0.61,WeatherDisplay:10.37,2013-06-14 14:24:00,
2013-06-14 10:29:00,57.2,52.1,29.67,NE,45,18.0,33.0,83,0.00,RA,,0.61,WeatherDisplay:10.37,2013-06-14 14:29:00,
2013-06-14 10:34:00,57.4,52.3,29.67,NNE,28,16.0,25.0,83,0.00,RA,,0.68,WeatherDisplay:10.37,2013-06-14 14:34:00,
2013-06-14 10:41:00,57.3,52.2,29.67,NE,36,17.0,23.0,83,0.00,RA,,0.61,WeatherDisplay:10.37,2013-06-14 14:41:00,
2013-06-14 10:50:00,57.3,52.2,29.67,NE,34,17.0,23.0,83,0.00,RA,,0.61,WeatherDisplay:10.37,2013-06-14 14:50:00,
2013-06-14 10:59:00,58.1,50.5,29.68,NE,43,15.0,29.0,76,0.00,RA,,0.61,WeatherDisplay:10.37,2013-06-14 14:59:00,
2013-06-14 11:04:00,58.4,48.3,29.69,NE,37,20.0,29.0,69,0.00,RA,,0.68,WeatherDisplay:10.37,2013-06-14 15:04:00,
2013-06-14 11:14:00,58.4,48.2,29.69,NE,35,20.0,30.0,69,0.00,RA,,0.68,WeatherDisplay:10.37,2013-06-14 15:14:00,
2013-06-14 11:19:00,58.2,48.1,29.69,NE,41,23.0,32.0,69,0.00,RA,,0.68,WeatherDisplay:10.37,2013-06-14 15:19:00,
2013-06-14 11:24:00,58.3,48.1,29.69,NE,34,18.0,27.0,69,0.00,RA,,0.61,WeatherDisplay:10.37,2013-06-14 15:24:00,
2013-06-14 11:30:00,58.4,48.3,29.69,NE,40,15.0,28.0,69,0.00,RA,,0.61,WeatherDisplay:10.37,2013-06-14 15:30:00,
2013-06-14 11:39:00,58.2,48.1,29.69,NE,53,23.0,23.0,69,0.00,RA,,0.68,WeatherDisplay:10.37,2013-06-14 15:39:00,
2013-06-14 11:49:00,59.0,48.8,29.70,NE,35,16.0,27.0,69,0.00,RA,,0.61,WeatherDisplay:10.37,2013-06-14 15:49:00,
2013-06-14 11:54:00,59.0,48.8,29.70,NNE,32,22.0,28.0,69,0.00,RA,,0.61,WeatherDisplay:10.37,2013-06-14 15:54:00,
2013-06-14 11:59:00,58.8,48.6,29.69,NNE,23,15.0,25.0,69,0.00,RA,,0.61,WeatherDisplay:10.37,2013-06-14 15:59:00,
2013-06-14 12:04:00,59.0,46.0,29.69,NNE,23,18.0,26.0,62,0.00,RA,,0.61,WeatherDisplay:10.37,2013-06-14 16:04:00,
2013-06-14 12:09:00,58.7,45.7,29.69,NNE,16,18.0,26.0,62,0.00,RA,,0.61,WeatherDisplay:10.37,2013-06-14 16:09:00,
2013-06-14 12:15:00,58.9,45.9,29.69,NNE,12,17.0,26.0,62,0.00,RA,,0.61,WeatherDisplay:10.37,2013-06-14 16:15:00,
2013-06-14 12:20:00,59.1,46.1,29.69,NNE,14,21.0,30.0,62,0.00,RA,,0.61,WeatherDisplay:10.37,2013-06-14 16:20:00,
2013-06-14 12:29:00,58.2,45.2,29.69,NE,53,23.0,23.0,62,0.00,RA,,0.68,WeatherDisplay:10.37,2013-06-14 16:29:00,
2013-06-14 12:34:00,59.7,46.6,29.70,NNE,20,17.0,29.0,62,0.00,RA,,0.61,WeatherDisplay:10.37,2013-06-14 16:34:00,
2013-06-14 12:40:00,59.8,46.8,29.70,NNE,24,17.0,22.0,62,0.00,RA,,0.61,WeatherDisplay:10.37,2013-06-14 16:40:00,
2013-06-14 12:50:00,59.8,46.7,29.70,NE,42,16.0,16.0,62,0.00,RA,,0.61,WeatherDisplay:10.37,2013-06-14 16:50:00,
2013-06-14 12:59:00,60.1,47.0,29.70,NNE,30,17.0,23.0,62,0.00,RA,,0.61,WeatherDisplay:10.37,2013-06-14 16:59:00,
2013-06-14 13:04:00,60.6,47.5,29.71,NNE,19,20.0,26.0,62,0.00,RA,,0.61,WeatherDisplay:10.37,2013-06-14 17:04:00,
2013-06-14 13:14:00,60.6,47.5,29.71,NNE,17,21.0,30.0,62,0.00,RA,,0.61,WeatherDisplay:10.37,2013-06-14 17:14:00,
2013-06-14 13:19:00,60.7,47.6,29.71,NNE,18,22.0,28.0,62,0.00,RA,,0.61,WeatherDisplay:10.37,2013-06-14 17:19:00,
2013-06-14 13:24:00,60.7,47.6,29.71,NNE,22,24.0,31.0,62,0.00,RA,,0.61,WeatherDisplay:10.37,2013-06-14 17:24:00,
2013-06-14 13:34:00,60.9,47.8,29.71,NNE,28,18.0,30.0,62,0.00,OVC,,0.61,WeatherDisplay:10.37,2013-06-14 17:34:00,
2013-06-14 13:39:00,61.1,48.0,29.71,NNE,22,18.0,26.0,62,0.00,OVC,,0.61,WeatherDisplay:10.37,2013-06-14 17:39:00,
2013-06-14 13:44:00,61.2,48.0,29.71,NNE,18,20.0,27.0,62,0.00,OVC,,0.61,WeatherDisplay:10.37,2013-06-14 17:44:00,
2013-06-14 13:50:00,61.3,48.2,29.71,NNE,22,20.0,27.0,62,0.00,OVC,,0.61,WeatherDisplay:10.37,2013-06-14 17:50:00,
2013-06-14 13:59:00,61.1,48.0,29.71,NNE,23,16.0,26.0,62,0.00,RA,,0.68,WeatherDisplay:10.37,2013-06-14 17:59:00,
2013-06-14 14:04:00,61.5,45.1,29.71,NNE,24,21.0,31.0,55,0.00,RA,,0.68,WeatherDisplay:10.37,2013-06-14 18:04:00,
2013-06-14 14:11:00,61.2,44.9,29.71,NNE,30,21.0,24.0,55,0.00,SCT,,0.61,WeatherDisplay:10.37,2013-06-14 18:11:00,
2013-06-14 14:19:00,61.6,45.3,29.71,NNE,29,21.0,28.0,55,0.00,SCT,,0.61,WeatherDisplay:10.37,2013-06-14 18:19:00,
2013-06-14 14:24:00,61.7,45.4,29.72,NNE,31,13.0,26.0,55,0.00,SCT,,0.61,WeatherDisplay:10.37,2013-06-14 18:24:00,
2013-06-14 14:30:00,61.6,45.3,29.71,NNE,32,18.0,23.0,55,0.00,RA,,0.68,WeatherDisplay:10.37,2013-06-14 18:30:00,
2013-06-14 14:39:00,61.6,45.3,29.73,NNE,26,17.0,22.0,55,0.00,SCT,,0.61,WeatherDisplay:10.37,2013-06-14 18:39:00,
2013-06-14 14:44:00,61.7,45.3,29.73,NNE,22,15.0,25.0,55,0.00,SCT,,0.61,WeatherDisplay:10.37,2013-06-14 18:44:00,
2013-06-14 14:49:00,61.6,45.2,29.73,NNE,29,18.0,25.0,55,0.00,SCT,,0.61,WeatherDisplay:10.37,2013-06-14 18:49:00,
2013-06-14 14:59:00,61.7,45.4,29.72,NNE,22,16.0,22.0,55,0.00,RA,,0.68,WeatherDisplay:10.37,2013-06-14 18:59:00,
2013-06-14 15:04:00,61.7,45.3,29.73,NNE,16,15.0,22.0,55,0.00,RA,,0.68,WeatherDisplay:10.37,2013-06-14 19:04:00,
2013-06-14 15:09:00,61.6,45.3,29.73,NE,39,13.0,13.0,55,0.00,SCT,,0.61,WeatherDisplay:10.37,2013-06-14 19:09:00,
2013-06-14 15:19:00,61.6,43.3,29.73,NE,39,13.0,13.0,51,0.00,BKN,,0.61,WeatherDisplay:10.37,2013-06-14 19:19:00,
2013-06-14 15:29:00,62.0,43.7,29.73,NNE,15,13.0,13.0,51,0.00,BKN,,0.61,WeatherDisplay:10.37,2013-06-14 19:29:00,
2013-06-14 15:39:00,62.0,43.7,29.73,NNE,13,13.0,13.0,51,0.00,BKN,,0.61,WeatherDisplay:10.37,2013-06-14 19:39:00,
2013-06-14 15:49:00,62.1,43.8,29.73,NNE,22,14.0,18.0,51,0.00,RA,,0.68,WeatherDisplay:10.37,2013-06-14 19:49:00,
2013-06-14 15:59:00,62.3,43.9,29.73,NNE,17,8.0,13.0,51,0.00,BKN,,0.61,WeatherDisplay:10.37,2013-06-14 19:59:00,
2013-06-14 16:04:00,62.4,45.6,29.73,NNE,27,8.0,12.0,54,0.00,SCT,,0.61,WeatherDisplay:10.37,2013-06-14 20:04:00,
2013-06-14 16:09:00,62.5,45.7,29.73,NNE,29,7.0,13.0,54,0.00,SCT,,0.61,WeatherDisplay:10.37,2013-06-14 20:09:00,
2013-06-14 16:14:00,62.6,45.7,29.73,NNE,28,7.0,10.0,54,0.00,SCT,,0.61,WeatherDisplay:10.37,2013-06-14 20:14:00,
2013-06-14 16:24:00,63.0,46.1,29.73,NNE,26,5.0,7.0,54,0.00,SCT,,0.61,WeatherDisplay:10.37,2013-06-14 20:24:00,
2013-06-14 16:34:00,63.9,46.9,29.72,NNW,338,10.0,12.0,54,0.00,SCT,,0.61,WeatherDisplay:10.37,2013-06-14 20:34:00,
2013-06-14 16:39:00,64.3,47.3,29.72,NNW,335,7.0,12.0,54,0.00,SCT,,0.61,WeatherDisplay:10.37,2013-06-14 20:39:00,
2013-06-14 16:49:00,64.9,47.8,29.72,NNW,344,8.0,10.0,54,0.00,SCT,,0.61,WeatherDisplay:10.37,2013-06-14 20:49:00,
2013-06-14 16:59:00,65.2,48.2,29.72,NNW,339,7.0,12.0,54,0.00,SCT,,0.61,WeatherDisplay:10.37,2013-06-14 20:59:00,
2013-06-14 17:04:00,64.9,47.9,29.72,NNW,338,6.0,10.0,54,0.00,RA,,0.68,WeatherDisplay:10.37,2013-06-14 21:04:00,
2013-06-14 17:09:00,64.9,47.9,29.72,NNW,345,8.0,10.0,54,0.00,SCT,,0.61,WeatherDisplay:10.37,2013-06-14 21:09:00,
2013-06-14 17:21:00,64.9,49.8,29.73,NNW,348,7.0,7.0,58,0.00,RA,,0.68,WeatherDisplay:10.37,2013-06-14 21:21:00,
2013-06-14 17:26:00,65.1,50.0,29.72,NNW,330,2.0,7.0,58,0.00,FEW,,0.61,WeatherDisplay:10.37,2013-06-14 21:26:00,
2013-06-14 17:31:00,65.2,50.0,29.72,NNW,328,3.0,5.0,58,0.00,RA,,0.61,WeatherDisplay:10.37,2013-06-14 21:31:00,
2013-06-14 17:41:00,65.4,50.2,29.72,NW,313,1.0,5.0,58,0.00,RA,,0.68,WeatherDisplay:10.37,2013-06-14 21:41:00,
2013-06-14 17:46:00,65.6,50.4,29.72,NW,316,1.0,3.0,58,0.00,RA,,0.61,WeatherDisplay:10.37,2013-06-14 21:46:00,
2013-06-14 17:54:00,65.8,50.6,29.72,WNW,302,1.0,3.0,58,0.00,RA,,0.61,WeatherDisplay:10.37,2013-06-14 21:54:00,
2013-06-14 18:01:00,66.5,51.3,29.73,WNW,300,1.0,6.0,58,0.00,RA,,0.61,WeatherDisplay:10.37,2013-06-14 22:01:00,
2013-06-14 18:06:00,67.0,50.8,29.73,NW,304,0.0,3.0,56,0.00,RA,,0.61,WeatherDisplay:10.37,2013-06-14 22:06:00,
2013-06-14 18:12:00,67.4,51.2,29.73,WNW,294,0.0,6.0,56,0.00,RA,,0.61,WeatherDisplay:10.37,2013-06-14 22:12:00,
2013-06-14 18:21:00,65.1,49.0,29.73,SSE,156,7.0,8.0,56,0.00,RA,,0.61,WeatherDisplay:10.37,2013-06-14 22:21:00,
2013-06-14 18:31:00,63.7,47.7,29.73,SSE,153,8.0,10.0,56,0.00,RA,,0.61,WeatherDisplay:10.37,2013-06-14 22:31:00,
2013-06-14 18:41:00,63.6,47.6,29.73,SSE,159,7.0,8.0,56,0.00,RA,,0.68,WeatherDisplay:10.37,2013-06-14 22:41:00,
2013-06-14 18:51:00,63.7,47.7,29.73,South,177,6.0,8.0,56,0.00,RA,,0.61,WeatherDisplay:10.37,2013-06-14 22:51:00,
2013-06-14 19:01:00,63.9,47.9,29.73,South,183,5.0,8.0,56,0.00,RA,,0.61,WeatherDisplay:10.37,2013-06-14 23:01:00,
2013-06-14 19:06:00,64.0,49.8,29.73,South,180,2.0,8.0,60,0.00,RA,,0.61,WeatherDisplay:10.37,2013-06-14 23:06:00,
2013-06-14 19:11:00,64.1,49.9,29.73,South,185,3.0,6.0,60,0.00,RA,,0.61,WeatherDisplay:10.37,2013-06-14 23:11:00,
2013-06-14 19:21:00,64.1,49.9,29.73,SSW,201,3.0,3.0,60,0.00,RA,,0.61,WeatherDisplay:10.37,2013-06-14 23:21:00,
2013-06-14 19:26:00,64.0,49.8,29.73,SSW,197,3.0,5.0,60,0.00,RA,,0.61,WeatherDisplay:10.37,2013-06-14 23:26:00,
2013-06-14 19:31:00,63.6,49.5,29.74,South,185,3.0,5.0,60,0.00,RA,,0.61,WeatherDisplay:10.37,2013-06-14 23:31:00,
2013-06-14 19:36:00,63.2,49.1,29.74,South,174,5.0,7.0,60,0.00,RA,,0.61,WeatherDisplay:10.37,2013-06-14 23:36:00,
2013-06-14 19:42:00,62.9,48.8,29.74,South,183,3.0,7.0,60,0.00,RA,,0.61,WeatherDisplay:10.37,2013-06-14 23:42:00,
2013-06-14 19:51:00,62.7,48.6,29.74,SSW,201,3.0,3.0,60,0.00,RA,,0.61,WeatherDisplay:10.37,2013-06-14 23:51:00,
2013-06-14 19:56:00,62.1,48.0,29.74,SSW,213,3.0,4.0,60,0.00,RA,,0.68,WeatherDisplay:10.37,2013-06-14 23:56:00,
2013-06-14 20:06:00,62.0,52.9,29.74,SW,217,3.0,3.0,72,0.00,RA,,0.61,WeatherDisplay:10.37,2013-06-15 00:06:00,
2013-06-14 20:11:00,62.0,52.9,29.74,SW,217,3.0,3.0,72,0.00,RA,,0.61,WeatherDisplay:10.37,2013-06-15 00:11:00,
2013-06-14 20:22:00,62.0,52.9,29.74,SW,217,3.0,3.0,72,0.00,RA,,0.61,WeatherDisplay:10.37,2013-06-15 00:22:00,
2013-06-14 20:34:00,62.0,52.9,29.74,SW,217,3.0,3.0,72,0.00,RA,,0.61,WeatherDisplay:10.37,2013-06-15 00:34:00,
2013-06-14 20:41:00,62.0,52.9,29.74,SW,217,3.0,3.0,72,0.00,RA,,0.61,WeatherDisplay:10.37,2013-06-15 00:41:00,
2013-06-14 20:52:00,60.4,51.3,29.75,SW,218,0.0,3.0,72,0.00,RA,,0.61,WeatherDisplay:10.37,2013-06-15 00:52:00,
2013-06-14 21:01:00,60.2,51.1,29.75,SW,219,0.0,2.0,72,0.00,RA,,0.61,WeatherDisplay:10.37,2013-06-15 01:01:00,
2013-06-14 21:06:00,60.1,51.0,29.75,SW,219,0.0,4.0,72,0.00,RA,,0.61,WeatherDisplay:10.37,2013-06-15 01:06:00,
2013-06-14 21:12:00,60.0,50.9,29.75,SW,219,0.0,3.0,72,0.00,RA,,0.61,WeatherDisplay:10.37,2013-06-15 01:12:00,
2013-06-14 21:21:00,59.9,55.7,29.75,SW,219,1.0,3.0,86,0.00,RA,,0.61,WeatherDisplay:10.37,2013-06-15 01:21:00,
2013-06-14 21:32:00,59.6,55.4,29.75,WSW,248,2.0,6.0,86,0.00,RA,,0.61,WeatherDisplay:10.37,2013-06-15 01:32:00,
2013-06-14 21:41:00,59.5,55.3,29.76,WSW,252,1.0,1.0,86,0.00,RA,,0.61,WeatherDisplay:10.37,2013-06-15 01:41:00,
2013-06-14 21:51:00,59.5,55.3,29.76,WSW,252,1.0,1.0,86,0.00,RA,,0.61,WeatherDisplay:10.37,2013-06-15 01:51:00,
2013-06-14 22:01:00,59.3,55.1,29.75,WSW,252,1.0,3.0,86,0.00,RA,,0.68,WeatherDisplay:10.37,2013-06-15 02:01:00,
2013-06-14 22:06:00,59.3,56.4,29.75,WSW,252,1.0,4.0,90,0.00,RA,,0.68,WeatherDisplay:10.37,2013-06-15 02:06:00,
2013-06-14 22:11:00,59.5,56.6,29.76,WSW,252,1.0,1.0,90,0.00,RA,,0.61,WeatherDisplay:10.37,2013-06-15 02:11:00,
2013-06-14 22:16:00,59.4,56.5,29.75,WSW,252,1.0,4.0,90,0.00,RA,,0.68,WeatherDisplay:10.37,2013-06-15 02:16:00,
2013-06-14 22:22:00,59.5,56.6,29.75,WSW,252,1.0,1.0,90,0.00,RA,,0.61,WeatherDisplay:10.37,2013-06-15 02:22:00,
2013-06-14 22:32:00,59.5,56.6,29.75,WSW,252,1.0,0.0,90,0.00,RA,,0.61,WeatherDisplay:10.37,2013-06-15 02:32:00,
2013-06-14 22:43:00,59.5,56.6,29.75,WSW,252,1.0,0.0,90,0.00,RA,,0.61,WeatherDisplay:10.37,2013-06-15 02:43:00,
2013-06-14 22:51:00,59.5,56.6,29.75,WSW,252,1.0,0.0,90,0.00,RA,,0.61,WeatherDisplay:10.37,2013-06-15 02:51:00,
2013-06-14 23:01:00,60.4,57.4,29.74,WNW,292,3.0,7.0,90,0.00,RA,,0.68,WeatherDisplay:10.37,2013-06-15 03:01:00,
2013-06-14 23:06:00,60.4,55.2,29.74,WNW,303,3.0,6.0,83,0.00,RA,,0.68,WeatherDisplay:10.37,2013-06-15 03:06:00,
2013-06-14 23:12:00,59.5,54.3,29.75,WSW,252,1.0,0.0,83,0.00,RA,,0.61,WeatherDisplay:10.37,2013-06-15 03:12:00,
2013-06-14 23:22:00,59.5,54.3,29.75,WSW,252,1.0,0.0,83,0.00,RA,,0.61,WeatherDisplay:10.37,2013-06-15 03:22:00,
2013-06-14 23:31:00,59.5,54.3,29.75,WSW,252,1.0,0.0,83,0.00,RA,,0.61,WeatherDisplay:10.37,2013-06-15 03:31:00,
2013-06-14 23:42:00,59.5,54.3,29.75,WSW,252,1.0,0.0,83,0.00,RA,,0.61,WeatherDisplay:10.37,2013-06-15 03:42:00,
2013-06-14 23:51:00,60.3,55.1,29.75,WNW,299,3.0,9.0,83,0.00,RA,,0.68,WeatherDisplay:10.37,2013-06-15 03:51:00,